CW7109 Weather Reports


Display with metric or nautical units.
time (UTC)temp
F
wind
direction
speed
MPH
gust
MPH
rain 1hr
in
rain 24hr
in
rain mn
in
humidity
%
barometer
mb
20260510094149 52 176 0.0 0.0 0.00 0.00 0.00 82 1012.9
20260510093150 52 176 0.0 0.0 0.00 0.00 0.00 82 1012.7
20260510092150 52 176 0.0 1.0 0.00 0.00 0.00 82 1012.8
20260510091150 52 176 0.0 0.0 0.00 0.00 0.00 82 1012.8
20260510090149 53 176 0.0 1.0 0.00 0.00 0.00 82 1012.7
20260510082149 53 176 0.0 1.0 0.00 0.00 0.00 82 1012.7
20260510081149 52 186 0.0 1.0 0.00 0.00 0.00 82 1012.4
20260510080149 52 87 0.0 0.0 0.00 0.00 0.00 81 1012.1
20260510074148 53 87 0.0 0.0 0.00 0.00 0.00 81 1012.1
20260510073148 53 87 0.0 0.0 0.00 0.00 0.00 81 1012.0
20260510072148 53 87 0.0 0.0 0.00 0.00 0.00 81 1011.9
20260510070148 53 87 0.0 0.0 0.00 0.00 0.00 81 1011.7
20260510065148 53 87 0.0 0.0 0.00 0.00 0.00 81 1011.7
20260510063148 54 87 0.0 0.0 0.00 0.00 0.00 80 1011.5
20260510061148 54 87 0.0 0.0 0.00 0.00 0.00 80 1011.4
20260510060147 55 87 0.0 0.0 0.00 0.00 0.00 80 1011.7
20260510055147 55 87 0.0 0.0 0.00 0.00 0.00 80 1011.6
20260510054147 55 87 0.0 0.0 0.00 0.00 0.00 80 1011.6
20260510053147 55 87 0.0 0.0 0.00 0.00 0.00 80 1011.7
20260510052147 55 87 0.0 0.0 0.00 0.00 0.00 80 1011.6
20260510051147 56 87 0.0 0.0 0.00 0.00 0.00 80 1011.6
20260510050147 56 87 0.0 0.0 0.00 0.00 0.00 79 1011.8
20260510044147 56 87 0.0 0.0 0.00 0.00 0.00 78 1011.9
20260510043146 56 87 0.0 0.0 0.00 0.00 0.00 78 1012.0
20260510041147 57 87 0.0 0.0 0.00 0.00 0.00 78 1011.9
20260510040146 57 87 0.0 0.0 0.00 0.00 0.00 78 1011.9
20260510035146 57 87 0.0 0.0 0.00 0.00 0.00 78 1011.9
20260510034146 57 87 0.0 0.0 0.00 0.00 0.00 78 1011.8
20260510033146 58 87 0.0 0.0 0.00 0.00 0.00 77 1011.8
20260510031146 58 87 0.0 0.0 0.00 0.00 0.00 76 1011.8
20260510030146 59 87 0.0 0.0 0.00 0.00 0.00 76 1011.6
20260510024145 60 87 0.0 0.0 0.00 0.00 0.00 74 1011.6
20260510023145 60 87 0.0 0.0 0.00 0.00 0.00 74 1011.4
20260510022145 60 87 0.0 0.0 0.00 0.00 0.00 73 1011.4
20260510021145 61 87 0.0 0.0 0.00 0.00 0.00 72 1011.5
20260510020145 61 87 0.0 0.0 0.00 0.00 0.00 72 1011.5
20260510015145 61 86 0.0 0.0 0.00 0.00 0.00 72 1011.3
20260510014145 61 86 0.0 3.0 0.00 0.00 0.00 71 1011.3
20260510013145 62 95 0.0 3.0 0.00 0.00 0.00 71 1011.2
20260510011144 62 11 0.0 1.0 0.00 0.00 0.00 69 1011.0
20260510005144 64 351 0.0 1.0 0.00 0.00 0.00 68 1010.8
20260510004144 64 351 0.0 0.0 0.00 0.00 0.00 67 1010.7
20260510003144 65 351 0.0 1.0 0.00 0.00 0.00 65 1010.6
20260510002144 65 55 0.0 2.0 0.00 0.00 0.00 65 1010.6
20260510001144 66 50 0.0 1.0 0.00 0.00 0.00 64 1010.4
20260510000144 67 73 0.0 1.0 0.00 0.00 0.00 62 1010.6
20260509235144 67 22 0.0 2.0 0.00 0.00 0.00 61 1010.4
20260509233143 68 82 0.0 2.0 0.00 0.00 0.00 59 1010.1
20260509232143 68 82 2.0 2.0 0.00 0.00 0.00 57 1010.1
20260509230143 69 53 0.0 1.0 0.00 0.00 0.00 57 1010.0
20260509225143 69 83 0.0 3.0 0.00 0.00 0.00 56 1009.8
20260509224143 70 242 0.0 2.0 0.00 0.00 0.00 56 1009.9
20260509223142 70 289 0.0 3.0 0.00 0.00 0.00 56 1009.9
20260509222142 70 86 2.0 3.0 0.00 0.00 0.00 55 1009.9
20260509220142 71 82 2.0 3.0 0.00 0.00 0.00 53 1010.1
20260509214142 70 309 0.0 2.0 0.00 0.00 0.00 52 1010.2
20260509213142 70 27 0.0 3.0 0.00 0.00 0.00 52 1010.2
20260509212142 70 190 0.0 1.0 0.00 0.00 0.00 52 1010.2
20260509211142 70 75 0.0 2.0 0.00 0.00 0.00 52 1010.1
20260509210142 71 246 0.0 5.0 0.00 0.00 0.00 51 1010.1
20260509205141 71 65 1.0 4.0 0.00 0.00 0.00 50 1010.1
20260509204141 71 252 1.0 6.0 0.00 0.00 0.00 50 1010.1
20260509203141 71 277 2.0 3.0 0.00 0.00 0.00 50 1010.1
20260509202141 71 188 1.0 4.0 0.00 0.00 0.00 49 1010.2
20260509201141 71 251 2.0 4.0 0.00 0.00 0.00 48 1010.2
20260509200140 71 273 0.0 2.0 0.00 0.00 0.00 50 1010.3
20260509195141 71 310 1.0 5.0 0.00 0.00 0.00 50 1010.5
20260509194140 71 266 2.0 6.0 0.00 0.00 0.00 49 1010.5
20260509193140 70 264 2.0 6.0 0.00 0.00 0.00 49 1010.4
20260509192140 69 197 1.0 4.0 0.00 0.00 0.00 51 1010.8
20260509191140 69 70 2.0 7.0 0.00 0.00 0.00 49 1010.7
20260509190140 68 162 0.0 3.0 0.00 0.00 0.00 50 1010.9
20260509185140 67 61 1.0 4.0 0.00 0.00 0.00 52 1011.0
20260509184140 67 67 3.0 8.0 0.00 0.00 0.00 54 1011.1
20260509183140 66 88 3.0 5.0 0.00 0.00 0.00 52 1011.2
20260509182139 66 74 0.0 3.0 0.00 0.00 0.00 54 1011.6
20260509181140 66 76 2.0 3.0 0.00 0.00 0.00 54 1011.7
20260509180139 65 24 0.0 1.0 0.00 0.00 0.00 53 1011.7
20260509174139 65 178 0.0 2.0 0.00 0.00 0.00 53 1011.7
20260509173139 65 199 0.0 2.0 0.00 0.00 0.00 53 1011.6
20260509172138 65 186 0.0 2.0 0.00 0.00 0.00 53 1011.7
20260509171139 66 250 0.0 3.0 0.00 0.00 0.00 53 1011.8
20260509170139 66 260 1.0 4.0 0.00 0.00 0.00 53 1011.8
20260509165138 66 247 0.0 4.0 0.00 0.00 0.00 52 1011.9
20260509164138 66 242 3.0 6.0 0.00 0.00 0.00 53 1012.0
20260509163138 66 253 2.0 5.0 0.00 0.00 0.00 54 1011.9
20260509162139 65 232 0.0 4.0 0.00 0.00 0.00 54 1012.1
20260509161138 65 265 2.0 3.0 0.00 0.00 0.00 53 1012.1
20260509160138 65 254 2.0 3.0 0.00 0.00 0.00 51 1012.1
20260509155138 66 265 3.0 4.0 0.00 0.00 0.00 49 1012.0
20260509154138 66 267 4.0 4.0 0.00 0.00 0.00 50 1011.9
20260509153138 66 187 0.0 3.0 0.00 0.00 0.00 51 1012.0
20260509152138 65 257 2.0 4.0 0.00 0.00 0.00 53 1012.0
20260509151137 64 263 1.0 4.0 0.00 0.00 0.00 54 1012.4
20260509150137 64 246 0.0 3.0 0.00 0.00 0.00 54 1012.6
20260509145137 64 277 3.0 3.0 0.00 0.00 0.00 54 1012.8
20260509144137 64 271 0.0 4.0 0.00 0.00 0.00 53 1012.7
20260509143137 64 277 0.0 3.0 0.00 0.00 0.00 54 1012.7
20260509141137 63 238 2.0 3.0 0.00 0.00 0.00 54 1012.8
20260509140137 63 294 1.0 2.0 0.00 0.00 0.00 55 1012.7
20260509134136 62 270 1.0 4.0 0.00 0.00 0.00 55 1012.7
20260509133136 62 271 3.0 4.0 0.00 0.00 0.00 55 1012.7
20260509132136 61 267 3.0 5.0 0.00 0.00 0.00 55 1012.7
20260509131136 61 172 1.0 2.0 0.00 0.00 0.00 57 1012.6
20260509130136 61 271 2.0 2.0 0.00 0.00 0.00 58 1012.5
20260509125136 60 266 0.0 2.0 0.00 0.00 0.00 59 1012.6
20260509124135 59 265 1.0 5.0 0.00 0.00 0.00 60 1012.7
20260509123135 59 312 2.0 2.0 0.00 0.00 0.00 60 1012.5
20260509122136 59 260 1.0 2.0 0.00 0.00 0.00 60 1012.5
20260509121136 58 319 1.0 2.0 0.00 0.00 0.00 60 1012.4
20260509115135 58 163 1.0 2.0 0.00 0.00 0.00 60 1012.5
20260509114135 57 273 0.0 2.0 0.00 0.00 0.00 60 1012.4
20260509113135 57 333 0.0 1.0 0.00 0.00 0.00 62 1012.5
20260509110135 57 285 0.0 0.0 0.00 0.00 0.00 63 1012.4
20260509105134 57 285 0.0 0.0 0.00 0.00 0.00 63 1012.2
20260509104135 57 285 0.0 0.0 0.00 0.00 0.00 62 1012.3
20260509103134 57 285 0.0 0.0 0.00 0.00 0.00 60 1012.3
20260509102134 58 285 0.0 0.0 0.00 0.00 0.00 59 1012.2
20260509100134 58 285 0.0 1.0 0.00 0.00 0.00 57 1012.0
20260509095134 58 282 0.0 1.0 0.00 0.00 0.00 56 1012.1